USA 134

Last updated on Tue Oct 21 2025 00:02:50 GMT+0000 (Coordinated Universal Time)

1 25019U 97065A 25293.32197584 -.00000060 00000+0 00000+0 0 9999 2 25019 12.4981 23.4728 0003897 243.0333 126.2711 1.00275985 30555
UTC large
Height (km)
Speed (km/s)
/
Latitude / Longitude
Inclination (degrees)
Orbital Period (minutes)
Azimuth
Elevation
Range (km)
Doppler Factor

Next 0 passes for location: London (51.5072 / 0.1276)

Sorry there are no passes over London.